Lapse_Rate
6.5 6.5 6.5 6.5 6.5 6.5 6.5 6.5 6.5 6.5 6.5 6.5 6.5 6.5 7.0 7.3 7.2 6.4 6.1 5.7 5.9 6.1 6.3 6.3 6.0 5.6 5.5 5.3 5.0 4.4 4.4 4.4 3.9 3.8 3.8 3.4 2.9 2.7 2.6 2.7 2.9 3.0 3.2 3.8
6.5 6.5 6.5 6.5 6.5 6.5 6.5 6.5 6.5 6.5 6.5 6.5 7.1 7.3 7.2 7.1 6.9 7.2 6.5 6.1 6.1 6.2 6.0 5.8 5.6 5.3 4.6 4.4 4.0 4.2 4.2 4.0 3.9 4.1 4.0 3.4 2.9 2.5 2.7 2.9 3.0 2.8 3.0 3.7
6.5 6.5 6.5 6.5 6.5 6.5 6.5 6.5 6.5 6.5 6.5 6.8 6.5 6.8 7.0 7.2 7.1 7.0 6.0 5.6 5.8 5.7 5.6 5.4 5.2 4.3 4.3 4.2 3.9 4.1 4.0 3.8 3.7 3.8 3.9 3.5 3.3 3.2 2.9 3.0 3.4 3.9 4.7 6.1
6.5 6.5 6.5 6.5 6.5 6.5 6.5 6.5 6.5 6.5 6.5 6.7 6.9 7.1 7.4 7.2 5.9 6.0 5.6 5.1 5.4 5.6 5.1 4.9 4.6 4.1 3.6 4.0 4.1 4.0 4.0 3.9 4.0 3.9 4.0 2.7 3.6 3.5 3.1 3.9 4.4 4.3 4.5 4.4
6.5 6.5 6.5 6.5 6.5 6.5 6.5 6.5 6.5 6.5 6.5 6.9 7.0 7.2 7.1 6.0 5.5 4.6 4.7 5.0 5.0 5.2 4.9 4.1 4.1 3.8 3.9 3.8 3.9 3.9 4.0 4.1 4.4 4.5 4.8 4.6 3.6 1.9 3.6 4.8 5.2 5.1 5.6 5.4
6.5 6.5 6.5 6.5 6.5 6.9 6.7 6.5 6.7 6.9 6.7 6.8 7.1 6.5 6.5 3.5 4.5 4.6 4.3 4.1 4.6 4.5 4.1 4.1 3.7 3.6 3.8 3.8 3.5 3.7 3.8 4.3 4.6 4.9 5.0 5.1 4.9 5.1 5.8 6.7 6.7 7.1 7.0 8.0
6.5 6.5 6.5 6.5 6.7 6.7 6.5 6.5 6.8 6.8 7.0 7.0 6.6 7.0 5.9 3.0 3.6 3.8 3.5 3.7 4.3 3.9 4.0 4.3 3.7 3.7 3.8 3.3 3.4 3.5 3.8 4.4 4.8 5.0 4.9 5.4 5.6 6.1 6.7 7.0 6.4 6.3 6.3 7.3
6.5 6.5 6.5 6.6 6.4 6.5 6.6 5.7 5.9 5.8 6.9 6.9 7.1 4.5 3.3 2.6 3.4 3.4 3.6 3.6 3.7 3.9 3.9 3.4 3.5 3.8 3.8 3.7 3.1 3.2 3.7 4.2 4.7 4.9 4.9 5.0 5.1 5.9 6.4 6.7 6.0 5.8 5.7 5.0
6.5 6.5 6.6 5.7 6.0 5.1 5.2 5.8 5.7 5.1 4.8 6.4 6.0 4.9 3.5 2.6 3.3 4.1 4.1 3.8 3.5 3.9 3.3 3.1 3.2 3.6 3.7 3.1 2.8 3.0 3.4 3.8 4.1 4.1 4.5 5.0 5.2 5.8 6.1 6.3 6.7 7.3 6.2 6.7
6.5 6.5 6.6 5.7 4.9 4.7 4.9 4.9 5.0 4.1 3.8 4.5 5.5 5.1 3.7 2.2 3.5 3.9 4.3 3.8 3.6 3.6 3.5 3.0 2.9 2.7 3.5 2.8 2.7 3.0 3.5 3.8 3.8 3.4 3.0 4.0 4.4 4.7 5.4 6.1 6.2 6.3 7.2 7.8
6.5 6.6 6.4 5.8 4.9 5.0 4.8 4.0 4.6 3.8 3.3 3.0 4.9 4.5 3.5 2.8 3.1 3.9 3.8 3.4 3.3 3.5 3.6 3.8 3.1 3.1 3.1 2.9 2.8 3.4 3.5 3.6 3.6 3.1 2.7 1.8 1.8 2.1 2.9 4.6 5.4 6.2 7.5 8.3
6.5 5.5 5.6 5.6 4.2 4.2 3.5 3.6 4.2 4.3 2.6 2.5 4.2 4.1 3.6 3.2 3.1 3.2 3.2 2.9 3.3 3.7 3.9 3.7 3.2 3.4 3.3 3.1 3.3 3.6 3.5 3.4 3.1 2.5 2.3 2.2 2.2 1.6 2.2 2.7 4.0 5.4 5.8 7.3
5.9 4.0 4.4 3.9 4.9 4.0 4.3 4.0 4.1 3.6 3.8 2.2 2.8 4.1 3.9 3.1 2.5 2.3 3.2 2.8 3.4 3.3 3.6 3.5 3.4 3.4 3.4 3.1 3.1 3.3 3.7 3.7 3.5 2.6 3.5 3.4 3.1 3.7 3.0 3.0 4.6 5.3 5.9 6.0
4.8 3.3 4.9 4.4 5.5 4.7 3.9 4.3 3.1 3.2 3.0 2.7 3.3 4.0 3.8 2.5 1.5 2.5 2.4 2.9 3.5 3.5 3.5 3.4 3.5 3.6 3.2 2.8 3.1 3.2 3.4 1.1 3.5 3.9 4.3 4.3 4.4 4.5 5.0 6.8 7.0 7.0 7.4 7.6
4.5 4.2 4.9 4.6 4.1 3.9 3.7 2.7 3.2 3.2 2.7 2.2 2.3 3.2 2.8 1.7 1.9 2.3 2.9 2.5 2.9 3.5 3.6 3.3 3.4 3.8 2.7 2.5 2.8 3.2 3.6 4.0 3.7 3.7 3.9 3.7 4.4 4.5 5.4 7.4 7.8 8.3 8.6 7.9
5.0 4.4 4.0 4.5 5.1 4.4 3.5 3.4 4.2 3.6 2.2 2.2 1.4 1.4 1.9 2.4 2.6 2.3 1.6 2.3 2.9 2.9 3.4 2.8 3.3 3.8 2.5 2.5 2.9 3.1 3.5 1.5 1.5 3.4 3.5 3.7 4.3 4.7 6.2 7.9 8.3 8.4 8.2 8.1
5.7 5.2 4.1 4.6 4.2 4.1 3.5 3.8 4.0 3.3 2.7 1.8 1.6 1.5 1.3 1.3 1.2 1.1 1.7 2.3 3.3 3.1 3.3 3.2 3.2 3.0 2.1 2.3 2.9 3.2 2.6 1.6 1.3 3.1 3.4 3.8 4.4 5.2 6.7 7.4 8.3 8.0 8.0 8.2
6.2 6.2 4.7 4.6 4.1 3.0 2.5 2.4 2.7 2.8 2.6 2.1 1.7 0.3 -0.1 0.5 1.4 0.9 1.0 1.3 0.9 -0.1 1.4 1.7 1.1 0.8 1.0 2.0 2.4 2.6 2.5 1.6 2.6 2.8 2.8 3.0 3.6 4.8 7.0 7.2 6.9 7.4 8.0 8.0
6.2 6.0 5.4 4.4 4.3 3.9 3.6 2.3 1.9 2.0 1.3 0.8 0.1 -0.5 -0.4 -0.8 -0.0 -1.2 -1.8 -0.6 -0.2 -0.1 -0.6 -0.9 -1.3 0.7 0.8 0.1 1.2 2.2 2.5 2.2 2.6 2.6 2.2 1.7 3.1 4.9 6.3 6.2 7.0 7.4 8.1 7.6
4.9 4.5 4.4 3.8 3.3 3.1 2.8 1.8 1.2 0.5 0.1 0.0 -0.8 -1.2 -0.9 -2.1 -2.2 -2.2 -1.0 -0.2 0.8 1.3 0.1 0.1 -0.8 0.5 1.5 0.5 0.0 2.2 2.1 1.8 1.8 1.6 2.0 2.9 4.1 5.4 6.8 6.7 7.4 7.6 7.7 6.6
5.8 4.6 3.5 2.6 1.4 0.9 0.4 -0.5 -1.4 -1.6 -2.3 -2.3 -1.3 -1.6 -1.5 -2.1 -1.5 -1.3 0.4 1.4 -0.2 -0.3 0.5 -1.2 0.6 1.4 1.7 1.3 1.3 1.5 0.9 1.3 2.0 2.6 2.6 2.6 3.5 5.0 6.4 7.1 7.2 7.6 7.1 6.3
5.3 5.3 1.8 -0.0 -0.2 0.1 -1.2 -1.4 -1.0 -2.3 -2.4 -2.4 -2.7 -2.3 -2.4 -1.5 -1.3 0.4 0.3 2.4 -0.1 -1.3 0.1 0.7 1.2 0.5 0.9 -1.1 1.8 1.6 1.9 2.2 2.6 2.9 3.0 2.8 3.3 4.7 6.4 7.4 7.5 7.5 7.0 6.2
4.0 3.5 2.1 0.2 0.1 0.6 -0.2 -1.1 -1.8 -1.6 -1.7 -1.7 -2.1 -2.4 -1.4 -1.3 -0.4 0.8 1.5 0.4 0.5 -0.4 1.1 1.0 -0.6 -2.4 -2.3 0.3 1.9 2.0 1.8 1.8 2.2 2.7 2.6 2.4 3.1 4.5 5.6 6.8 7.6 7.5 6.9 6.2
3.0 2.6 2.5 1.6 1.3 1.6 1.7 0.0 -0.7 -0.9 -1.4 -1.3 -1.3 -1.8 -0.9 -0.8 0.1 0.7 -0.3 -1.0 -0.9 -1.0 0.4 -0.3 -1.2 -2.5 -1.6 0.7 1.7 1.6 1.8 2.2 2.4 2.5 2.7 2.4 2.9 3.6 4.2 5.8 6.6 7.4 6.5 5.9
3.1 3.4 2.9 2.2 2.6 2.9 2.7 0.3 -0.4 -0.5 -0.4 -0.2 -0.5 -0.2 1.0 1.5 0.6 -1.0 -0.0 -0.2 -1.6 0.0 0.3 -2.3 -1.9 -2.4 0.6 1.4 1.6 1.7 2.1 2.4 2.7 2.7 2.8 2.8 2.8 3.1 3.4 4.5 6.1 7.3 6.2 5.7
2.7 2.8 2.3 2.1 2.6 1.7 1.0 0.9 1.2 -0.0 -0.2 -0.8 -0.8 -0.8 -0.5 -0.1 -0.4 -0.2 -0.1 -0.2 -0.2 -0.1 0.5 -0.3 0.4 0.3 1.1 1.7 2.0 2.1 2.5 2.8 2.8 2.9 2.9 3.1 2.8 3.0 3.8 4.3 5.6 6.8 5.9 5.3
0.5 -0.1 0.5 0.4 0.7 1.0 1.3 1.3 0.8 0.0 -0.2 -0.6 -1.0 0.2 0.7 0.6 0.2 0.0 -0.4 -0.3 0.1 0.5 0.7 0.9 0.9 0.2 1.7 2.3 2.4 2.6 2.7 3.0 2.1 3.1 3.2 3.4 3.3 3.6 3.8 4.2 5.0 5.4 5.2 4.7
Wind_Speed
3 4 4 6 13 16 14 6 8 3 11 16 18 17 18 15 11 12 12 12 11 10 9 8 7 6 6 4 3 3 4 5 6 5 6 6 8 9 10 10 10 12 11 10
2 4 3 2 8 16 16 9 11 3 7 9 16 14 13 15 14 15 14 13 12 10 10 9 8 8 6 5 4 3 4 5 6 6 6 7 8 9 9 10 11 10 11 11
4 4 4 5 16 15 12 12 15 14 13 10 11 18 18 17 17 18 16 15 13 13 11 10 9 9 8 5 4 4 4 5 6 7 8 8 8 9 10 11 10 11 11 12
3 6 4 4 1 13 17 9 19 12 9 15 16 20 19 18 19 18 16 15 13 11 10 10 9 8 7 5 3 3 4 5 5 7 8 6 8 10 10 10 11 11 11 12
5 5 4 4 6 8 12 11 21 23 14 13 6 8 11 16 19 20 19 16 13 12 11 10 9 8 6 4 3 3 3 4 5 5 7 8 7 5 8 10 11 10 11 12
3 5 7 3 3 7 8 6 6 21 19 15 13 11 10 16 16 15 15 14 13 12 10 10 8 7 5 3 2 1 2 4 5 5 7 8 9 9 9 10 10 10 12 12
3 3 5 6 3 8 6 3 1 6 17 18 15 14 6 15 15 15 15 15 13 13 11 10 9 8 5 3 2 1 2 3 4 4 6 7 8 8 10 11 11 11 11 11
3 2 8 8 7 7 1 1 1 2 12 19 15 8 9 17 18 18 17 16 15 12 10 9 9 7 6 4 4 2 1 2 4 5 5 6 9 9 10 11 11 12 12 11
9 6 1 9 3 5 2 1 1 1 5 14 12 9 13 15 18 18 19 16 14 13 12 10 9 7 6 5 4 2 1 2 5 6 6 7 8 9 9 10 9 10 9 10
4 6 8 7 4 6 5 7 4 3 6 13 14 12 13 15 16 17 17 16 14 14 12 11 9 7 5 6 4 3 1 3 5 6 8 8 7 7 7 8 9 10 10 10
2 3 1 9 12 9 10 9 7 4 7 14 13 13 14 15 17 16 16 14 14 13 12 11 10 8 6 6 4 3 2 3 5 5 8 8 8 7 7 9 8 9 9 11
4 7 5 3 6 8 10 11 11 9 6 10 14 15 14 14 16 16 16 14 12 12 11 10 10 8 7 6 6 4 2 3 3 4 4 5 6 6 5 8 14 14 13 13
5 7 9 4 5 5 5 8 9 10 11 11 13 14 16 13 16 15 15 15 14 14 12 11 10 9 7 7 6 4 3 3 4 4 5 6 7 8 8 6 11 11 14 17
6 7 2 5 5 7 8 4 6 6 7 8 11 12 14 14 13 15 16 16 14 13 11 11 10 9 8 7 7 4 3 3 4 5 6 7 7 8 8 8 10 10 9 11
10 9 5 6 6 5 4 6 8 9 9 10 11 12 13 15 15 15 13 13 12 11 11 10 9 9 8 8 6 4 4 4 4 5 5 6 7 7 8 9 10 10 10 10
12 11 9 8 7 5 7 8 10 11 10 10 12 14 15 15 14 13 13 14 13 12 12 10 9 8 8 7 5 4 4 4 3 4 6 6 6 7 8 9 10 10 9 11
10 9 6 7 9 10 11 11 12 13 12 13 15 13 13 12 11 12 14 14 12 11 11 11 9 8 7 6 5 3 2 3 3 4 4 5 6 7 8 9 10 9 10 11
13 12 13 12 10 9 9 10 10 9 12 16 12 12 12 14 15 14 13 12 8 5 7 8 7 8 6 6 4 3 2 2 4 5 6 6 7 8 8 10 10 11 9 10
17 16 13 12 9 9 10 9 10 12 8 9 12 14 16 14 12 12 12 11 10 9 8 6 8 8 7 5 4 3 3 3 5 5 5 7 7 7 8 7 10 10 9 11
15 14 12 12 9 8 8 7 8 9 9 11 9 8 10 9 11 13 14 15 12 5 12 11 10 8 7 6 4 2 2 3 4 4 4 7 7 7 7 10 11 8 9 11
19 15 13 12 11 10 8 7 8 8 9 11 14 14 14 12 13 13 13 9 9 9 12 14 9 7 5 5 4 2 1 2 3 4 5 7 8 8 8 9 9 7 9 11
17 17 13 9 9 9 6 6 6 6 9 8 5 8 12 13 12 11 4 9 8 13 9 8 7 8 6 6 3 3 3 3 3 4 5 6 7 8 8 8 9 7 9 10
12 11 9 9 9 9 7 7 7 8 11 11 12 13 13 11 12 12 9 8 9 11 9 8 9 9 8 4 3 3 3 3 3 4 5 6 7 9 9 8 8 8 8 10
7 8 9 8 7 7 8 7 8 8 7 8 9 11 13 11 6 4 8 12 14 13 8 8 8 9 7 3 3 3 3 3 4 5 5 8 7 8 8 8 8 8 8 12
7 7 5 8 10 8 8 9 9 9 10 10 11 11 10 7 6 8 10 9 14 11 8 8 9 8 4 3 3 3 3 3 4 5 6 7 7 8 8 9 9 8 8 9
7 6 5 7 6 6 7 9 8 8 9 9 8 8 7 8 9 10 9 12 10 10 8 6 5 5 4 4 3 4 4 4 4 5 6 7 7 8 9 10 9 8 8 8
4 5 5 5 4 6 8 9 9 9 9 10 10 8 10 10 10 11 12 9 8 7 6 5 5 5 4 4 4 4 5 5 5 6 6 7 7 8 8 9 9 8 8 8
Wind_Direction
118 124 138 159 179 184 203 174 187 194 206 194 192 190 190 189 182 173 174 170 165 163 165 162 157 151 146 135 121 73 56 39 32 24 18 10 4 0 358 357 352 351 348 343
55 127 156 169 192 199 214 210 240 208 240 216 200 196 188 189 182 184 183 179 175 173 173 174 168 161 155 147 122 99 56 37 31 19 12 10 3 359 356 352 354 346 343 340
173 152 134 283 216 195 206 212 215 219 227 163 180 193 198 193 189 190 188 181 182 183 181 176 171 163 158 147 122 84 54 37 26 21 12 4 1 357 354 348 342 340 334 332
131 144 197 236 153 206 209 216 213 227 198 188 194 200 199 197 191 192 186 181 184 181 176 172 164 160 148 137 103 71 45 31 18 11 5 346 350 354 346 340 337 335 330 331
152 198 297 238 191 169 187 245 216 222 208 197 177 164 215 202 195 187 185 182 179 179 172 167 168 158 146 124 78 52 26 11 360 349 349 347 343 316 333 334 329 325 324 319
158 158 203 254 165 156 153 274 212 213 208 182 160 200 206 185 189 182 171 166 167 169 165 166 165 159 153 127 94 55 14 355 348 342 342 346 343 338 333 330 323 320 315 313
155 192 272 229 158 171 159 228 155 208 204 182 194 210 173 168 176 174 164 160 158 164 171 171 162 163 161 158 164 127 323 326 333 329 332 332 333 330 332 330 326 322 321 322
121 155 240 161 132 192 177 141 232 251 203 197 203 162 155 167 165 162 160 157 162 166 169 162 165 171 171 177 163 191 259 318 326 316 316 320 322 320 328 331 328 329 329 328
190 198 215 196 165 191 157 246 260 237 209 195 182 179 161 168 167 166 163 161 165 166 162 167 175 182 172 164 175 192 218 323 328 322 318 318 316 317 324 332 333 332 332 327
145 203 221 217 228 225 209 233 239 217 186 180 184 177 175 164 163 162 164 164 164 162 168 174 182 181 172 165 170 191 272 323 332 331 331 330 327 325 329 336 337 336 333 326
254 265 260 232 227 227 239 233 239 209 196 194 184 180 172 168 168 167 165 163 167 169 174 180 179 185 184 181 189 213 276 320 332 333 340 345 343 332 326 327 326 319 321 322
197 205 183 208 196 199 227 232 214 202 194 194 191 181 174 175 171 165 166 163 169 174 175 177 179 185 185 186 193 206 277 319 324 324 339 332 331 321 308 289 320 322 295 299
194 197 199 126 162 177 219 227 212 206 208 188 192 180 176 170 173 164 164 168 175 179 181 177 183 188 186 183 189 204 274 304 307 289 307 329 337 332 324 320 303 292 293 305
196 124 152 182 221 209 212 225 196 200 193 187 182 178 168 164 157 166 174 181 175 174 178 180 186 194 184 183 194 216 264 254 296 302 307 318 324 326 326 326 325 327 318 311
215 210 187 195 203 214 169 156 182 196 179 174 172 173 165 163 171 182 174 169 168 172 178 183 190 196 180 186 202 228 264 281 302 303 305 311 316 327 325 326 320 317 321 325
222 225 213 202 209 198 192 197 206 206 185 175 176 178 183 179 175 170 166 163 165 188 187 186 194 189 181 190 207 230 256 264 278 307 317 318 323 328 329 327 321 317 318 330
224 227 206 218 216 216 209 207 208 199 190 180 192 184 168 163 156 164 174 177 180 174 180 183 187 171 173 182 202 232 252 274 284 296 320 321 319 323 324 317 319 316 308 324
232 235 215 207 206 206 211 205 205 191 193 199 173 164 162 168 182 180 172 164 151 135 170 168 153 153 161 176 194 227 239 268 296 311 318 320 323 317 322 322 319 316 314 324
233 231 224 213 209 205 209 200 197 200 187 163 160 178 185 188 177 162 150 153 158 168 192 153 147 158 169 175 187 204 244 285 310 318 327 322 316 318 324 315 314 309 320 326
223 220 217 212 194 181 192 203 195 189 180 170 165 148 171 165 154 154 162 174 183 166 149 158 162 175 170 161 170 203 256 306 313 317 312 313 315 314 317 311 312 308 328 328
220 220 214 207 203 202 206 188 171 180 177 167 172 180 182 165 159 154 156 172 175 147 151 157 169 168 167 163 167 173 220 246 283 309 319 317 316 315 314 304 307 311 330 328
215 218 218 192 183 200 195 170 170 137 160 171 153 137 143 156 154 165 169 175 150 153 150 161 165 159 152 159 169 208 225 261 294 306 311 312 306 307 302 304 314 319 326 326
213 210 199 183 184 192 177 176 165 170 167 172 169 166 171 170 167 161 169 162 149 155 155 159 150 142 148 174 200 221 242 280 293 300 306 309 308 306 306 308 313 313 319 327
169 180 189 178 156 155 174 193 180 180 169 165 162 160 154 148 143 123 111 137 140 147 149 147 149 148 164 179 204 219 241 270 288 296 300 303 303 310 306 305 306 311 312 325
182 191 170 170 184 197 188 159 147 142 139 145 148 151 159 170 159 146 137 137 138 140 143 145 148 153 179 192 213 227 241 265 282 297 300 297 306 311 306 303 304 306 307 319
186 195 191 195 195 171 159 158 160 153 141 136 133 133 118 116 121 127 129 137 140 139 145 152 162 171 182 202 218 229 246 268 273 292 298 295 303 305 306 304 303 304 308 315
110 118 130 125 140 156 160 157 150 152 148 143 132 132 129 127 127 127 128 133 138 143 147 156 168 183 200 209 227 242 252 263 266 291 292 298 292 298 304 306 305 305 311 311